Date String (YYYY-MM-DD hh:mm:ss) UTC,Instrument flags,Ambient pressure (hPa),Sample flow (lpm),Bypass flow (lpm),Sample temperature (°C),Ambient temperature (°C),ASC tube jacket temperature (°C),LED temperature (°C),Box temperature (°C),Sample RH (%),Span deviation,Mass concentration (μg/m³),Mass concentration (μg/m³),Mass concentration (μg/m³)
DateTimeUTC,F1_M11,P_M11,Q1_M11,Q2_M11,T1_M11,T2_M11,T3_M11,T4_M11,T5_M11,U1_M11,ZSPAN_M11,X0_M11,X2_M11,X1_M11
2022-11-26 23:00:00,,0820.8,5.00,0.00,29.4,27.8,00.0,38.3,31.1,09.2,0000.0,0010.08,0001.29,0000.59
2022-11-26 23:01:00,,0820.8,5.00,0.00,29.4,27.9,00.0,38.3,31.1,09.2,0000.0,0010.40,0001.34,0000.60
2022-11-26 23:02:00,,0820.8,4.99,0.00,29.4,27.9,00.0,38.3,31.1,09.2,0000.0,0011.16,0001.42,0000.61
2022-11-26 23:03:00,,0820.8,5.01,0.00,29.4,27.8,00.0,38.3,31.1,09.0,0000.0,0011.26,0001.44,0000.62
2022-11-26 23:04:00,,0820.8,4.98,0.00,29.4,27.7,00.0,38.3,31.1,09.1,0000.0,0010.15,0001.45,0000.63
2022-11-26 23:05:00,,0820.8,5.02,0.00,29.3,27.7,00.0,38.3,31.1,09.1,0000.0,0009.89,0001.46,0000.63
2022-11-26 23:06:00,,0820.9,4.99,0.00,29.3,27.7,00.0,38.3,31.0,09.2,0000.0,0009.97,0001.44,0000.63
2022-11-26 23:07:00,,0820.8,5.01,0.00,29.3,27.7,00.0,38.3,31.0,09.2,0000.0,0010.10,0001.46,0000.63
2022-11-26 23:08:00,,0820.9,4.98,0.00,29.3,27.7,00.0,38.3,31.0,09.1,0000.0,0009.77,0001.44,0000.62
2022-11-26 23:09:00,,0820.9,5.01,0.00,29.3,27.7,00.0,38.3,31.0,09.2,0000.0,0009.80,0001.42,0000.62
2022-11-26 23:10:00,,0820.9,4.99,0.00,29.3,27.7,00.0,38.3,31.0,09.3,0000.0,0009.18,0001.45,0000.62
2022-11-26 23:11:00,,0820.9,5.01,0.00,29.3,27.7,00.0,38.2,30.9,09.3,0000.0,0008.99,0001.43,0000.61
2022-11-26 23:12:00,,0820.9,5.00,0.00,29.2,27.6,00.0,38.2,30.9,09.2,0000.0,0009.37,0001.43,0000.61
2022-11-26 23:13:00,,0820.9,4.99,0.00,29.2,27.7,00.0,38.2,31.0,09.2,0000.0,0008.31,0001.39,0000.61
2022-11-26 23:14:00,,0820.9,5.02,0.00,29.2,27.7,00.0,38.2,31.0,09.3,0000.0,0008.07,0001.40,0000.61
2022-11-26 23:15:00,,0820.9,4.99,0.00,29.2,27.7,00.0,38.2,30.9,09.4,0000.0,0008.66,0001.46,0000.61
2022-11-26 23:16:00,,0820.9,5.00,0.00,29.2,27.7,00.0,38.2,30.9,09.4,0000.0,0009.15,0001.46,0000.60
2022-11-26 23:17:00,,0820.9,5.00,0.00,29.2,27.7,00.0,38.2,30.9,09.3,0000.0,0009.09,0001.50,0000.61
2022-11-26 23:18:00,,0820.9,4.99,0.00,29.2,27.7,00.0,38.2,30.9,09.3,0000.0,0008.57,0001.46,0000.61
2022-11-26 23:19:00,,0820.9,5.00,0.00,29.2,27.6,00.0,38.2,30.9,09.3,0000.0,0008.27,0001.44,0000.61
2022-11-26 23:20:00,,0820.9,4.99,0.00,29.2,27.6,00.0,38.2,30.9,09.3,0000.0,0008.66,0001.43,0000.63
2022-11-26 23:21:00,,0820.9,5.01,0.00,29.2,27.6,00.0,38.1,30.9,09.4,0000.0,0008.87,0001.40,0000.63
2022-11-26 23:22:00,,0821.0,4.99,0.00,29.2,27.6,00.0,38.1,30.9,09.4,0000.0,0008.74,0001.38,0000.64
2022-11-26 23:23:00,,0821.0,5.02,0.00,29.1,27.5,00.0,38.1,30.9,09.5,0000.0,0007.86,0001.36,0000.64
2022-11-26 23:24:00,,0821.0,4.99,0.00,29.1,27.5,00.0,38.1,30.8,09.5,0000.0,0008.15,0001.35,0000.64
2022-11-26 23:25:00,,0821.0,5.02,0.00,29.1,27.5,00.0,38.1,30.8,09.5,0000.0,0009.21,0001.35,0000.63
2022-11-26 23:26:00,,0821.0,4.99,0.00,29.1,27.5,00.0,38.1,30.8,09.5,0000.0,0008.76,0001.30,0000.63
2022-11-26 23:27:00,,0821.0,4.99,0.00,29.1,27.5,00.0,38.1,30.8,09.5,0000.0,0008.21,0001.28,0000.63
2022-11-26 23:28:00,,0821.1,5.01,0.00,29.1,27.5,00.0,38.1,30.8,09.5,0000.0,0008.44,0001.26,0000.62
2022-11-26 23:29:00,,0821.0,4.99,0.00,29.1,27.5,00.0,38.1,30.8,09.6,0000.0,0008.60,0001.28,0000.62
2022-11-26 23:30:00,,0821.1,5.01,0.00,29.1,27.6,00.0,38.1,30.8,09.6,0000.0,0008.03,0001.34,0000.62
2022-11-26 23:31:00,,0821.1,5.00,0.00,29.1,27.6,00.0,38.0,30.8,09.6,0000.0,0007.52,0001.35,0000.62
2022-11-26 23:32:00,,0821.2,4.99,0.00,29.1,27.6,00.0,38.0,30.8,09.7,0000.0,0007.90,0001.40,0000.61
2022-11-26 23:33:00,,0821.1,5.01,0.00,29.1,27.6,00.0,38.0,30.9,09.6,0000.0,0007.79,0001.34,0000.60
2022-11-26 23:34:00,,0821.2,4.99,0.00,29.1,27.6,00.0,38.0,30.9,09.6,0000.0,0007.95,0001.35,0000.60
2022-11-26 23:35:00,,0821.1,4.99,0.00,29.1,27.6,00.0,38.0,30.8,09.5,0000.0,0008.69,0001.36,0000.61
2022-11-26 23:36:00,,0821.2,5.02,0.00,29.1,27.6,00.0,38.0,30.8,09.5,0000.0,0007.91,0001.33,0000.61
2022-11-26 23:37:00,,0821.1,4.99,0.00,29.1,27.6,00.0,38.0,30.8,09.5,0000.0,0007.89,0001.37,0000.62
2022-11-26 23:38:00,,0821.1,5.00,0.00,29.1,27.6,00.0,38.0,30.8,09.5,0000.0,0007.94,0001.40,0000.63
2022-11-26 23:39:00,,0821.2,5.01,0.00,29.1,27.6,00.0,38.0,30.8,09.5,0000.0,0007.64,0001.39,0000.64
2022-11-26 23:40:00,,0821.2,4.99,0.00,29.1,27.6,00.0,38.0,30.8,09.6,0000.0,0007.57,0001.41,0000.64
2022-11-26 23:41:00,,0821.2,5.00,0.00,29.1,27.6,00.0,38.0,30.8,09.5,0000.0,0008.15,0001.33,0000.64
2022-11-26 23:42:00,,0821.2,5.00,0.00,29.1,27.6,00.0,38.0,30.8,09.5,0000.0,0008.94,0001.34,0000.65
2022-11-26 23:43:00,,0821.3,4.99,0.00,29.1,27.5,00.0,38.0,30.8,09.5,0000.0,0008.46,0001.32,0000.66
2022-11-26 23:44:00,,0821.3,5.01,0.00,29.0,27.5,00.0,38.0,30.8,09.4,0000.0,0008.64,0001.36,0000.67
2022-11-26 23:45:00,,0821.4,4.99,0.00,29.0,27.5,00.0,38.0,30.8,09.4,0000.0,0009.34,0001.40,0000.68
2022-11-26 23:46:00,,0821.4,4.99,0.00,29.0,27.5,00.0,38.0,30.8,09.5,0000.0,0009.04,0001.40,0000.67
2022-11-26 23:47:00,,0821.4,5.01,0.00,29.0,27.5,00.0,38.0,30.8,09.5,0000.0,0009.14,0001.39,0000.66
2022-11-26 23:48:00,,0821.4,4.99,0.00,29.0,27.5,00.0,38.0,30.8,09.5,0000.0,0009.06,0001.35,0000.65
2022-11-26 23:49:00,,0821.4,5.01,0.00,29.0,27.5,00.0,37.9,30.8,09.5,0000.0,0009.27,0001.36,0000.64
2022-11-26 23:50:00,,0821.4,5.00,0.00,29.0,27.5,00.0,37.9,30.8,09.5,0000.0,0009.81,0001.41,0000.63
2022-11-26 23:51:00,,0821.4,4.99,0.00,29.0,27.5,00.0,37.9,30.8,09.5,0000.0,0009.81,0001.39,0000.62
2022-11-26 23:52:00,,0821.4,5.01,0.00,29.0,27.5,00.0,37.9,30.8,09.5,0000.0,0009.18,0001.39,0000.63
2022-11-26 23:53:00,,0821.5,5.00,0.00,29.0,27.5,00.0,37.9,30.8,09.5,0000.0,0008.38,0001.36,0000.62
2022-11-26 23:54:00,,0821.5,4.99,0.00,29.0,27.6,00.0,37.9,30.8,09.6,0000.0,0008.50,0001.40,0000.61
2022-11-26 23:55:00,,0821.5,5.00,0.00,29.0,27.5,00.0,37.9,30.8,09.5,0000.0,0008.94,0001.46,0000.60
2022-11-26 23:56:00,,0821.5,5.00,0.00,29.0,27.6,00.0,37.9,30.8,09.6,0000.0,0008.46,0001.46,0000.60
2022-11-26 23:57:00,,0821.6,4.99,0.00,29.0,27.6,00.0,37.9,30.8,09.7,0000.0,0007.74,0001.47,0000.61
2022-11-26 23:58:00,,0821.6,5.02,0.00,29.0,27.5,00.0,37.9,30.8,09.6,0000.0,0007.52,0001.51,0000.61
2022-11-26 23:59:00,,0821.6,4.99,0.00,29.0,27.5,00.0,37.9,30.8,09.5,0000.0,0007.73,0001.59,0000.61
